Change the Weather History Date:

Thursday, September 27, 2012

  Actual Average Record
Temperature  
Mean Temperature 68 °F -  
Max Temperature 75 °F 71 °F 90 °F (1970)
Min Temperature 60 °F 48 °F 29 °F (1947)
Cooling Degree Days 2    
Growing Degree Days 18 (Base 50)    
Moisture  
Dew Point 62 °F    
Average Humidity 89    
Maximum Humidity 100    
Minimum Humidity 55    
Precipitation  
Precipitation 0.15 in - - ()
Sea Level Pressure  
Sea Level Pressure 30.11 in    
Wind  
Wind Speed 1 mph (NNW)    
Max Wind Speed 7 mph    
Max Gust Speed -    
Visibility 6 miles    
Events Rain    
Averages and records for this station are not official NWS values.
T = Trace of Precipitation, MM = Missing Value Source: NWS Daily Summary

Daily Weather History Graph

Daily Weather History Graph

Search for Another Location

Airport or City:

Trip Planner

Search our weather history database for the weather conditions in past years. The results will help you decide how hot, cold, wet, or windy it might be!

Date:

Astronomy

Sep. 27, 2012 Rise Set
Actual Time 6:51 AM EDT 6:46 PM EDT
Civil Twilight 6:24 AM EDT 7:13 PM EDT
Nautical Twilight 5:52 AM EDT 7:45 PM EDT
Astronomical Twilight 5:20 AM EDT 8:17 PM EDT
Moon 5:17 PM EDT (9/27) 4:17 AM EDT (9/27)
Length of Visible Light 12h 49m
Length of Day
11h 55m
Waxing Gibbous, 94% of the Moon is Illuminated
Sep 27
Waxing Gibbous
Sep 29
Full
Oct 8
Last Quarter
Oct 15
New
Oct 21
First Quarter

Hourly Weather History & Observations

Time (EDT) Temp. Dew Point Humidity Pressure Visibility Wind Dir Wind Speed Gust Speed Precip Events Conditions
12:39 AM 60.8 °F 60.8 °F 100% 30.05 in 1.5 mi Calm Calm - N/A   Clear
12:53 AM 61.0 °F 61.0 °F 100% 30.05 in 2.5 mi Calm Calm - N/A   Clear
1:13 AM 62.6 °F 60.8 °F 94% 30.06 in 4.0 mi South 3.5 mph - N/A   Scattered Clouds
1:53 AM 61.0 °F 60.1 °F 97% 30.06 in 2.0 mi Calm Calm - 0.01 in   Clear
2:00 AM 60.8 °F 60.8 °F 100% 30.06 in 1.8 mi Calm Calm - N/A   Clear
2:12 AM 62.6 °F 60.8 °F 94% 30.06 in 3.0 mi Calm Calm - N/A   Partly Cloudy
2:53 AM 61.0 °F 60.1 °F 97% 30.05 in 3.0 mi Calm Calm - N/A   Mostly Cloudy
3:53 AM 62.1 °F 60.1 °F 93% 30.06 in 6.0 mi Calm Calm - N/A   Overcast
4:53 AM 62.1 °F 61.0 °F 96% 30.10 in 3.0 mi Calm Calm - 0.02 in Rain Light Rain
5:53 AM 62.1 °F 62.1 °F 100% 30.11 in 4.0 mi Calm Calm - 0.04 in Rain Light Rain
6:16 AM 60.8 °F 60.8 °F 100% 30.11 in 1.8 mi Calm Calm - 0.00 in   Overcast
6:36 AM 60.8 °F 60.8 °F 100% 30.12 in 2.5 mi SW 3.5 mph - 0.00 in   Overcast
6:53 AM 62.1 °F 62.1 °F 100% 30.14 in 5.0 mi Calm Calm - 0.00 in   Overcast
7:26 AM 62.6 °F 62.6 °F 100% 30.15 in 2.0 mi Calm Calm - 0.02 in Rain Light Rain
7:53 AM 63.0 °F 62.1 °F 97% 30.14 in 2.5 mi Calm Calm - 0.04 in Rain Light Rain
8:27 AM 64.4 °F 62.6 °F 94% 30.12 in 3.0 mi NE 4.6 mph - 0.02 in Rain Light Rain
8:53 AM 64.0 °F 63.0 °F 96% 30.10 in 3.0 mi Calm Calm - 0.03 in Rain Light Rain
9:26 AM 64.4 °F 62.6 °F 94% 30.14 in 4.0 mi Calm Calm - 0.00 in   Mostly Cloudy
9:37 AM 64.4 °F 64.4 °F 100% 30.15 in 4.0 mi Variable 4.6 mph - 0.00 in   Mostly Cloudy
9:53 AM 66.0 °F 64.0 °F 93% 30.15 in 5.0 mi NNW 5.8 mph - 0.00 in   Overcast
10:02 AM 66.2 °F 64.4 °F 94% 30.15 in 6.0 mi NNW 4.6 mph - N/A   Mostly Cloudy
10:53 AM 69.1 °F 63.0 °F 81% 30.15 in 10.0 mi North 3.5 mph - N/A   Scattered Clouds
11:53 AM 72.0 °F 61.0 °F 68% 30.14 in 10.0 mi North 6.9 mph - N/A   Partly Cloudy
12:34 PM 71.6 °F 60.8 °F 69% 30.14 in 10.0 mi SE 3.5 mph - N/A   Mostly Cloudy
12:43 PM 71.6 °F 62.6 °F 73% 30.14 in 10.0 mi South 3.5 mph - N/A   Mostly Cloudy
12:53 PM 72.0 °F 62.1 °F 71% 30.14 in 10.0 mi Calm Calm - N/A   Mostly Cloudy
1:40 PM 71.6 °F 62.6 °F 73% 30.13 in 10.0 mi Variable 5.8 mph - N/A   Mostly Cloudy
1:53 PM 73.4 °F 62.6 °F 69% 30.13 in 10.0 mi SW 5.8 mph - N/A   Overcast
2:53 PM 75.0 °F 57.9 °F 55% 30.12 in 10.0 mi NNW 3.5 mph - N/A   Overcast
3:53 PM 73.0 °F 61.0 °F 66% 30.10 in 10.0 mi Calm Calm - N/A   Partly Cloudy
4:53 PM 73.0 °F 63.0 °F 71% 30.11 in 10.0 mi Calm Calm - N/A   Partly Cloudy
5:53 PM 70.0 °F 63.0 °F 78% 30.11 in 10.0 mi Calm Calm - N/A   Mostly Cloudy
6:53 PM 68.0 °F 64.0 °F 87% 30.12 in 9.0 mi Calm Calm - N/A   Clear
7:53 PM 66.0 °F 64.0 °F 93% 30.12 in 7.0 mi Calm Calm - N/A   Clear
8:53 PM 64.9 °F 63.0 °F 93% 30.13 in 6.0 mi Calm Calm - N/A   Scattered Clouds
9:53 PM 64.9 °F 64.0 °F 97% 30.14 in 6.0 mi Calm Calm - N/A   Mostly Cloudy
10:53 PM 64.9 °F 64.0 °F 97% 30.14 in 6.0 mi Calm Calm - N/A   Mostly Cloudy
11:53 PM 63.0 °F 62.1 °F 97% 30.15 in 7.0 mi Calm Calm - 0.01 in   Overcast